Henderson, KY

2:51 PM CST on December 06, 2019 (GMT -0600)
Henderson City-County

Weather History for KEHR - October, 2019

Change the Weather History Date:

Sunday, October 20, 2019

  Actual Average Record
Temperature  
Mean Temperature 63 °F -  
Max Temperature 75 °F 67 °F 90 °F (1963)
Min Temperature 51 °F 44 °F 29 °F (1972)
Degree Days  
Heating Degree Days 2    
Growing Degree Days 13 (Base 50)    
Moisture  
Dew Point 53 °F    
Average Humidity 85    
Maximum Humidity 100    
Minimum Humidity 43    
Precipitation  
Precipitation 0.00 in - - ()
Sea Level Pressure  
Sea Level Pressure 29.86 in    
Wind  
Wind Speed 3 mph (SSW)    
Max Wind Speed 8 mph    
Max Gust Speed -    
Visibility 5 miles    
Events Fog , Rain    
Averages and records for this station are not official NWS values.
T = Trace of Precipitation, MM = Missing Value Source: NWS Daily Summary

Daily Weather History Graph

Daily Weather History Graph

Search for Another Location

Airport or City:

Astronomy

Oct. 20, 2019 Rise Set
Actual Time 7:03 AM CDT 6:06 PM CDT
Civil Twilight 6:37 AM CDT 6:33 PM CDT
Nautical Twilight 6:06 AM CDT 7:03 PM CDT
Astronomical Twilight 5:36 AM CDT 7:34 PM CDT
Moon 11:19 PM CDT (10/20) 1:27 PM CDT (10/20)
Length of Visible Light 11h 56m
Length of Day
11h 02m
Waning Gibbous, 59% of the Moon is Illuminated
Oct 20
Waning Gibbous
Oct 21
Last Quarter
Oct 27
New
Nov 4
First Quarter
Nov 12
Full

Hourly Weather History & Observations

Time (CDT) Temp. Dew Point Humidity Pressure Visibility Wind Dir Wind Speed Gust Speed Precip Events Conditions
12:56 AM 55.9 °F 54.0 °F 93% 29.81 in 10.0 mi Calm Calm - N/A   Partly Cloudy
1:43 AM 55.4 °F 55.4 °F 100% 29.81 in 1.0 mi Calm Calm - N/A   Clear
1:45 AM 55.4 °F 53.6 °F 94% 29.81 in 0.5 mi Calm Calm - N/A Fog Fog
1:56 AM 54.0 °F 53.1 °F 97% 29.81 in 0.5 mi SSW 3.5 mph - N/A Fog Fog
2:05 AM 53.6 °F 53.6 °F 100% 29.82 in 0.8 mi SW 3.5 mph - 0.00 in Rain Light Rain
2:12 AM 53.6 °F 51.8 °F 94% 29.82 in 0.5 mi SW 3.5 mph - 0.00 in Fog , Rain Light Rain
2:20 AM 51.8 °F 51.8 °F 100% 29.82 in 0.5 mi SW 4.6 mph - 0.00 in Fog , Rain Light Rain
2:26 AM 53.6 °F 53.6 °F 100% 29.82 in 1.0 mi SW 4.6 mph - 0.00 in Rain Light Rain
2:28 AM 53.6 °F 53.6 °F 100% 29.82 in 2.0 mi WSW 4.6 mph - 0.00 in Rain Light Rain
2:35 AM 55.4 °F 55.4 °F 100% 29.82 in 6.0 mi WSW 6.9 mph - 0.00 in   Mostly Cloudy
3:56 AM 57.9 °F 57.0 °F 97% 29.81 in 10.0 mi WSW 8.1 mph - N/A   Overcast
4:56 AM 55.9 °F 55.9 °F 100% 29.84 in 7.0 mi West 5.8 mph - N/A   Mostly Cloudy
5:40 AM 55.4 °F 53.6 °F 94% 29.85 in 4.0 mi WSW 4.6 mph - N/A   Scattered Clouds
5:43 AM 55.4 °F 53.6 °F 94% 29.86 in 1.5 mi WSW 3.5 mph - N/A   Partly Cloudy
5:46 AM 53.6 °F 53.6 °F 100% 29.86 in 0.8 mi WSW 3.5 mph - N/A   Mist
5:50 AM 53.6 °F 53.6 °F 100% 29.85 in 0.5 mi WSW 3.5 mph - N/A Fog Fog
5:56 AM 53.1 °F 52.0 °F 96% 29.86 in 0.5 mi Calm Calm - N/A Fog Fog
5:58 AM 53.6 °F 51.8 °F 94% 29.86 in 0.2 mi Calm Calm - N/A Fog Fog
6:38 AM 53.6 °F 53.6 °F 100% 29.88 in 0.5 mi SW 3.5 mph - N/A Fog Fog
6:56 AM 55.0 °F 54.0 °F 96% 29.88 in 1.2 mi West 4.6 mph - N/A   Overcast
7:15 AM 53.6 °F 53.6 °F 100% 29.88 in 0.8 mi SW 4.6 mph - N/A   Overcast
7:21 AM 53.6 °F 53.6 °F 100% 29.88 in 0.2 mi SSW 4.6 mph - N/A Fog Fog
7:49 AM 53.6 °F 53.6 °F 100% 29.89 in 0.5 mi Calm Calm - N/A Fog Fog
7:53 AM 53.6 °F 53.6 °F 100% 29.89 in 1.0 mi Calm Calm - N/A   Mostly Cloudy
7:56 AM 54.0 °F 53.1 °F 97% 29.89 in 1.5 mi South 3.5 mph - N/A   Mostly Cloudy
8:12 AM 53.6 °F 53.6 °F 100% 29.90 in 1.5 mi Calm Calm - N/A   Mostly Cloudy
8:18 AM 53.6 °F 53.6 °F 100% 29.90 in 3.0 mi Calm Calm - N/A   Mostly Cloudy
8:56 AM 55.0 °F 55.0 °F 100% 29.90 in 10.0 mi Calm Calm - N/A   Partly Cloudy
9:56 AM 61.0 °F 52.0 °F 72% 29.91 in 10.0 mi Calm Calm - N/A   Clear
10:56 AM 64.9 °F 51.1 °F 61% 29.93 in 10.0 mi Calm Calm - N/A   Clear
11:56 AM 69.1 °F 51.1 °F 53% 29.92 in 10.0 mi Variable 4.6 mph - N/A   Partly Cloudy
12:56 PM 72.0 °F 50.0 °F 46% 29.90 in 10.0 mi Variable 3.5 mph - N/A   Mostly Cloudy
1:56 PM 73.0 °F 50.0 °F 44% 29.88 in 10.0 mi SW 3.5 mph - N/A   Overcast
2:56 PM 75.0 °F 51.1 °F 43% 29.86 in 10.0 mi SSE 8.1 mph - N/A   Clear
3:56 PM 75.0 °F 51.1 °F 43% 29.86 in 10.0 mi South 4.6 mph - N/A   Clear
4:56 PM 73.9 °F 50.0 °F 43% 29.87 in 10.0 mi South 6.9 mph - N/A   Clear
5:56 PM 68.0 °F 50.0 °F 52% 29.88 in 10.0 mi SSE 4.6 mph - N/A   Clear
6:56 PM 63.0 °F 51.1 °F 65% 29.88 in 10.0 mi Calm Calm - N/A   Partly Cloudy
7:56 PM 57.9 °F 50.0 °F 75% 29.88 in 10.0 mi Calm Calm - N/A   Clear
8:56 PM 59.0 °F 50.0 °F 72% 29.89 in 10.0 mi ESE 4.6 mph - N/A   Clear
9:56 PM 62.1 °F 54.0 °F 75% 29.89 in 10.0 mi SE 5.8 mph - N/A   Clear
10:56 PM 63.0 °F 54.0 °F 72% 29.89 in 10.0 mi SE 8.1 mph - N/A   Mostly Cloudy
11:56 PM 61.0 °F 54.0 °F 78% 29.84 in 10.0 mi ESE 8.1 mph - N/A   Partly Cloudy